Regional Weather Roundup
Issued by NWS

Home | Current Version | Previous Version | Graphics & Text | Print | Product List | Glossary On
Versions: 1 2 3 4 5 6 7 8 9 10 11 12 13 14 15 16 17 18 19 20 21 22 23 24 25 26 27 28 29 30 31 32 33 34 35 36 37 38 39 40 41 42 43 44 45 46 47 48 49 50
000
ASUS43 KBIS 010110
RWRND

NORTH DAKOTA REGIONAL WEATHER ROUNDUP
NATIONAL WEATHER SERVICE BISMARCK ND
700 PM CST SAT JAN 31 2015

NOTE: "FAIR" INDICATES FEW OR NO CLOUDS BELOW 12,000 FEET WITH NO
SIGNIFICANT WEATHER AND/OR OBSTRUCTIONS TO VISIBILITY.


NDZ001>003-009>011-017-010200-
NORTHWEST NORTH DAKOTA

CITY           SKY/WX    TMP DP  RH WIND       PRES   REMARKS
WILLISTON      LGT SNOW   1  -5  75 NE14      30.42R WCI -17
MINOT          CLOUDY    -3 -11  68 N15       30.45R WCI -23
MINOT AFB      MOCLDY    -4 -11  71 NE16      30.46S WCI -25
$$

NDZ018>021-031>035-040>046-010200-
SOUTHWEST NORTH DAKOTA

CITY           SKY/WX    TMP DP  RH WIND       PRES   REMARKS
BISMARCK       LGT SNOW   4  -2  76 NE18G25   30.36R WCI -16
DICKINSON      LGT SNOW   5   0  79 NE16      30.24R VSB 3/4 WCI -14
GARRISON         N/A     -2  -7  79 NE10      30.39R WCI -19
HETTINGER ARPT LGT SNOW  11   7  84 NE16      30.19R FOG     WCI  -6
$$

NDZ004>008-012>016-024-026-027-054-010200-
NORTHEAST NORTH DAKOTA

CITY           SKY/WX    TMP DP  RH WIND       PRES   REMARKS
GRAND FORKS    CLOUDY    -5 -14  65 N17       30.50R WCI -27
GRND FRKS AFB  PTCLDY    -6 -15  67 N16G23    30.50R WCI -28
DEVILS LAKE    CLOUDY    -6 -17  59 NE14      30.44R WCI -26
$$

NDZ022-023-025-028>030-036>039-047>053-010200-
SOUTHEAST NORTH DAKOTA

CITY           SKY/WX    TMP DP  RH WIND       PRES   REMARKS
FARGO          MOCLDY     6  -7  54 N17G25    30.38S WCI -13
JAMESTOWN      CLOUDY     2  -8  63 N16       30.35R WCI -18
$$




USA.gov is the U.S. government's official web portal to all federal, state and local government web resources and services.